Showing default

ICEYE-X39, 60546

Orbit data source: Space-Track

ICEYE-X39, 60546 is a Brazilian payload satellite in SSO that was launched on Fri, 16 Aug 2024 UTC via an FALCON 9 launch vehicle from the Air Force Western Test Range (AFWTR). Payload-class satellites include a variety of spacecraft equipped with specific instruments for various scientific and technological missions. These include communications satellites like Starlink; space stations such as the ISS; scientific satellites like the Hubble; Earth observation satellites from companies like Planet Labs, Umbra, and HawkEye 360; GPS; miniature CubeSats for education and research; and military/defense satellites.

Loading next visibility...
Identifier
60546, 2024-149CG
Orbit
SSO
Country
Flag of UnknownUnknown / BRAZ
Related business
Manufacturer
ICEYE
Mission
Operational Commercial Radar Imaging
Bus & Motor
ICEYE, Unknown motor
Mass
80 kg wet, 80 kg dry
Launch date (UTC)
2024-08-16 (1 year ago)
Launch vehicle
FALCON 9
Launch site
Air Force Western Test Range (AFWTR)
Object type
Payload
Rocket body
Debris
Shape & HBR
Box + 1 Pan, 1.4 m
Radar Cross Section
0.776 m², Medium (>0.1 m² and < 1m²)

Expand to show TLE details & history
Last TLE update: 21 hours ago

TLE from 21 hours ago
0 ICEYE-X39
1 60546U 24149CG  26034.21117360  .00004016  00000-0  33682-3 0  9993
2 60546  97.6894 113.0459 0005031 162.3005 197.8394 14.98927879 80042
Epoch: 2026-02-03T05:04Z
TLE epoch observation values (Epoch: 2026-02-03T05:04:05.399Z)
Latitude
Longitude
-96.37196°
Altitude
576.59 km
Speed
7.571 km/s
True Right ascension
07h 32m 11s
True Declination
0° 00' 00"
Sunlit
Object was in full shadow at epoch
Visualization orbit readout
Latitude
Unknown
Longitude
Unknown
Altitude
Unknown
Speed
Unknown
Apparent Right ascension
Unknown
Apparent Declination
Unknown
Sunlit
N/A
Visualization observer readout
Local Sidereal Time
04:25:58
Azimuth
Unknown
Elevation
Unknown
Doppler factor
Unknown
Orbital elements
Apogee altitude
570.708 km
Perigee altitude
563.72 km
Semi-major axis
6,945.351 km
Eccentricity
0.0005
Inclination
97.6894°
RAAN
113.0459°
Arg. of periapsis
162.3005°
True anomaly
197.82175°
Mean anomaly
197.8394°
Eccentric anomaly
197.83057°
Mean motion
3.74975 °/min
Orbital period
96.01 mins
BSTAR
0.00033682
Loading maneuver chart data...
Computing Atmospheric mass density...
Loading historical data...
Loading historical data...
Loading historical data...
Loading historical data...
Loading historical data...
Loading historical data...
Loading historical data...

Documentation

Showing up to 5 results
|